DW7061 Weather Reports


Display with metric or nautical units.
time (UTC)temp
F
wind
direction
speed
MPH
gust
MPH
rain 1hr
in
rain 24hr
in
rain mn
in
humidity
%
barometer
mb
20260508153017 50 270 1.0 3.0 0.00 0.00 0.00 55 1009.3
20260508152017 50 248 2.0 9.0 0.00 0.00 0.00 53 1009.2
20260508151017 51 225 1.0 5.0 0.00 0.00 0.00 55 1009.1
20260508150037 50 248 1.0 7.0 0.00 0.00 0.00 54 1009.1
20260508145037 49 225 1.0 4.0 0.00 0.00 0.00 53 1009.1
20260508144017 49 270 1.0 6.0 0.00 0.00 0.00 55 1009.3
20260508143018 49 270 1.0 6.0 0.00 0.00 0.00 54 1009.2
20260508142017 49 270 1.0 4.0 0.00 0.00 0.00 56 1009.2
20260508141017 48 248 1.0 4.0 0.00 0.00 0.00 56 1009.4
20260508140017 48 225 2.0 5.0 0.00 0.00 0.00 56 1009.5
20260508135018 48 270 1.0 4.0 0.00 0.00 0.00 56 1009.5
20260508134037 47 270 1.0 4.0 0.00 0.00 0.00 58 1009.8
20260508133018 46 225 1.0 3.0 0.00 0.00 0.00 58 1009.9
20260508132017 46 248 1.0 5.0 0.00 0.00 0.00 58 1010.0
20260508131037 45 248 1.0 5.0 0.00 0.00 0.00 60 1010.1
20260508130017 45 248 2.0 6.0 0.00 0.00 0.00 59 1010.0
20260508125017 44 270 1.0 3.0 0.00 0.00 0.00 63 1009.8
20260508124038 43 248 1.0 4.0 0.00 0.00 0.00 64 1009.8
20260508123017 42 0.0 1.0 0.00 0.00 0.00 66 1009.7
20260508122017 42 0.0 1.0 0.00 0.00 0.00 66 1009.8
20260508121017 41 0.0 2.0 0.00 0.00 0.00 65 1009.5
20260508120058 41 0.0 1.0 0.00 0.00 0.00 64 1009.6
20260508115017 42 248 1.0 3.0 0.00 0.00 0.00 64 1009.6
20260508114017 42 248 1.0 2.0 0.00 0.00 0.00 62 1009.6
20260508113017 41 248 1.0 2.0 0.00 0.00 0.00 62 1009.5
20260508112017 41 0.0 2.0 0.00 0.00 0.00 64 1009.3
20260508111057 40 0.0 2.0 0.00 0.00 0.00 66 1009.3
20260508110017 39 0.0 2.0 0.00 0.00 0.00 70 1009.1
20260508105019 38 0.0 0.0 0.00 0.00 0.00 71 1009.0
20260508104017 37 0.0 0.0 0.00 0.00 0.00 72 1009.1
20260508103018 37 0.0 0.0 0.00 0.00 0.00 72 1009.0
20260508102017 38 0.0 0.0 0.00 0.00 0.00 70 1008.9
20260508101037 38 0.0 0.0 0.00 0.00 0.00 67 1008.8
20260508100017 38 0.0 0.0 0.00 0.00 0.00 67 1008.6
20260508095037 38 0.0 0.0 0.00 0.00 0.00 68 1008.6
20260508094038 38 0.0 0.0 0.00 0.00 0.00 68 1008.4
20260508093037 38 0.0 0.0 0.00 0.00 0.00 68 1008.4
20260508092018 38 0.0 0.0 0.00 0.00 0.00 69 1008.3
20260508091017 38 0.0 0.0 0.00 0.00 0.00 69 1008.4
20260508090018 38 0.0 0.0 0.00 0.00 0.00 69 1008.4
20260508085017 38 0.0 0.0 0.00 0.00 0.00 68 1008.5
20260508084017 38 0.0 0.0 0.00 0.00 0.00 69 1008.4
20260508083017 38 0.0 0.0 0.00 0.00 0.00 72 1008.7
20260508082018 38 0.0 0.0 0.00 0.00 0.00 68 1008.5
20260508081037 38 0.0 0.0 0.00 0.00 0.00 67 1008.3
20260508080017 38 0.0 0.0 0.00 0.00 0.00 67 1008.2
20260508075017 38 0.0 0.0 0.00 0.00 0.00 65 1008.2
20260508074017 38 0.0 0.0 0.00 0.00 0.00 65 1008.2
20260508073017 39 0.0 0.0 0.00 0.00 0.00 64 1008.1
20260508072038 39 0.0 1.0 0.00 0.00 0.00 64 1008.0
20260508071017 39 0.0 0.0 0.00 0.00 0.00 64 1007.8
20260508070017 39 0.0 0.0 0.00 0.00 0.00 63 1007.7
20260508065017 39 0.0 0.0 0.00 0.00 0.00 63 1007.5
20260508064017 38 0.0 0.0 0.00 0.00 0.00 63 1007.4
20260508063017 38 0.0 0.0 0.00 0.00 0.00 64 1007.3
20260508062017 38 0.0 0.0 0.00 0.00 0.00 64 1007.3
20260508061016 39 0.0 0.0 0.00 0.00 0.00 64 1007.2
20260508060017 39 0.0 0.0 0.00 0.00 0.00 63 1007.2
20260508055017 39 0.0 0.0 0.00 0.00 0.00 63 1007.4
20260508054017 40 0.0 0.0 0.00 0.00 0.00 62 1007.6
20260508053017 41 0.0 0.0 0.00 0.00 0.00 60 1007.8
20260508052017 41 0.0 0.0 0.00 0.00 0.00 59 1007.8
20260508051017 41 0.0 0.0 0.00 0.00 0.00 60 1007.6
20260508050017 41 0.0 0.0 0.00 0.00 0.00 60 1007.7
20260508045037 41 0.0 0.0 0.00 0.00 0.00 60 1007.7
20260508044017 41 0.0 0.0 0.00 0.00 0.00 61 1007.9
20260508043017 41 0.0 0.0 0.00 0.00 0.00 62 1007.9
20260508042017 40 0.0 0.0 0.00 0.00 0.00 63 1008.1
20260508041018 40 0.0 0.0 0.00 0.00 0.00 64 1007.9
20260508040040 41 0.0 0.0 0.00 0.00 0.00 62 1008.0
20260508035017 41 0.0 0.0 0.00 0.00 0.00 61 1007.9
20260508034017 41 0.0 0.0 0.00 0.00 0.00 61 1007.8
20260508033017 41 0.0 0.0 0.00 0.00 0.00 62 1007.8
20260508032017 41 0.0 0.0 0.00 0.00 0.00 61 1007.9
20260508031018 42 0.0 0.0 0.00 0.00 0.00 61 1007.8
20260508030037 42 0.0 0.0 0.00 0.00 0.00 59 1007.8
20260508025038 43 0.0 0.0 0.00 0.00 0.00 59 1007.9
20260508024017 43 0.0 0.0 0.00 0.00 0.00 58 1007.8
20260508023037 44 0.0 0.0 0.00 0.00 0.00 58 1007.8
20260508022018 44 0.0 0.0 0.00 0.00 0.00 57 1007.8
20260508021017 44 0.0 0.0 0.00 0.00 0.00 56 1007.8
20260508020017 45 0.0 0.0 0.00 0.00 0.00 55 1007.7
20260508015017 45 0.0 0.0 0.00 0.00 0.00 54 1007.8
20260508014037 46 0.0 1.0 0.00 0.00 0.00 53 1007.9
20260508013018 46 0.0 1.0 0.00 0.00 0.00 51 1007.6
20260508012017 47 0.0 2.0 0.00 0.00 0.00 52 1007.5
20260508011038 47 0.0 2.0 0.00 0.00 0.00 51 1007.3
20260508010017 47 0.0 3.0 0.00 0.00 0.00 51 1007.2
20260508005017 47 0.0 2.0 0.00 0.00 0.00 51 1007.0
20260508004017 47 0.0 2.0 0.00 0.00 0.00 51 1006.9
20260508003017 47 225 1.0 5.0 0.00 0.00 0.00 50 1006.8
20260508002017 48 0.0 1.0 0.00 0.00 0.00 50 1006.8
20260508001017 48 0.0 1.0 0.00 0.00 0.00 51 1006.7
20260508000017 49 0.0 1.0 0.00 0.00 0.00 48 1006.7
20260507235018 50 0.0 1.0 0.00 0.00 0.00 47 1006.7
20260507234018 50 270 1.0 4.0 0.00 0.00 0.00 46 1006.6
20260507233017 51 248 1.0 5.0 0.00 0.00 0.00 44 1006.5
20260507232017 52 0.0 2.0 0.00 0.00 0.00 43 1006.3
20260507231017 52 0.0 3.0 0.00 0.00 0.00 44 1006.3
20260507230018 52 225 1.0 5.0 0.00 0.00 0.00 43 1006.2
20260507225017 52 270 1.0 6.0 0.00 0.00 0.00 42 1006.1
20260507224018 53 248 2.0 5.0 0.00 0.00 0.00 42 1006.3
20260507223017 53 248 2.0 12.0 0.00 0.00 0.00 41 1006.2
20260507222017 53 248 2.0 7.0 0.00 0.00 0.00 41 1006.1
20260507221138 53 248 1.0 5.0 0.00 0.00 0.00 43 1006.1
20260507220037 53 248 2.0 10.0 0.00 0.00 0.00 42 1006.2
20260507215017 54 248 1.0 7.0 0.00 0.00 0.00 41 1006.0
20260507214017 54 293 1.0 4.0 0.00 0.00 0.00 41 1006.0
20260507213018 54 248 2.0 8.0 0.00 0.00 0.00 40 1006.0
20260507212017 56 270 2.0 8.0 0.00 0.00 0.00 40 1005.9
20260507211017 56 270 3.0 11.0 0.00 0.00 0.00 39 1005.8
20260507210038 55 248 2.0 7.0 0.00 0.00 0.00 40 1006.0
20260507205017 56 270 1.0 6.0 0.00 0.00 0.00 41 1005.9
20260507204017 56 225 2.0 7.0 0.00 0.00 0.00 40 1005.9
20260507203058 56 270 3.0 10.0 0.00 0.00 0.00 39 1005.9
20260507202018 56 270 1.0 8.0 0.00 0.00 0.00 42 1005.9
20260507201017 56 248 3.0 8.0 0.00 0.00 0.00 39 1005.9
20260507200018 57 225 2.0 9.0 0.00 0.00 0.00 40 1006.1
20260507195017 57 248 3.0 12.0 0.00 0.00 0.00 40 1006.2
20260507194018 57 248 3.0 10.0 0.00 0.00 0.00 40 1006.1
20260507193017 57 270 2.0 8.0 0.00 0.00 0.00 38 1006.3
20260507192018 58 248 2.0 9.0 0.00 0.00 0.00 38 1006.3
20260507191017 57 270 1.0 7.0 0.00 0.00 0.00 40 1006.4
20260507190017 57 225 4.0 12.0 0.00 0.00 0.00 39 1006.5
20260507185017 56 248 3.0 8.0 0.00 0.00 0.00 41 1006.4
20260507184017 56 248 2.0 9.0 0.00 0.00 0.00 42 1006.6
20260507183017 56 248 4.0 12.0 0.00 0.00 0.00 42 1006.8
20260507182038 56 248 2.0 7.0 0.00 0.00 0.00 42 1007.0
20260507181017 56 248 3.0 7.0 0.00 0.00 0.00 42 1007.1
20260507180017 56 270 4.0 9.0 0.00 0.00 0.00 41 1007.0
20260507175018 56 248 2.0 6.0 0.00 0.00 0.00 41 1006.8
20260507174017 57 248 1.0 7.0 0.00 0.00 0.00 43 1007.0
20260507173017 57 248 2.0 5.0 0.00 0.00 0.00 44 1007.0
20260507172017 57 248 1.0 6.0 0.00 0.00 0.00 43 1006.8
20260507171017 55 248 2.0 8.0 0.00 0.00 0.00 42 1007.0
20260507170017 55 225 3.0 9.0 0.00 0.00 0.00 44 1007.0
20260507165018 55 270 2.0 8.0 0.00 0.00 0.00 42 1007.4
20260507164017 56 248 1.0 3.0 0.00 0.00 0.00 44 1007.4
20260507163018 55 248 2.0 8.0 0.00 0.00 0.00 44 1007.6
20260507162017 56 248 1.0 6.0 0.00 0.00 0.00 47 1007.8
20260507161017 55 270 2.0 8.0 0.00 0.00 0.00 45 1007.9
20260507160017 54 248 2.0 10.0 0.00 0.00 0.00 47 1007.9
20260507155038 54 270 1.0 6.0 0.00 0.00 0.00 48 1008.0
20260507154037 53 248 2.0 7.0 0.00 0.00 0.00 48 1008.2